When you browse on this site, cookies collect data to enhance your experience and personalize the content and advertising you see.
Visit our Privacy Policy to learn more. By continuing to use the site, you agree to this use of cookies and data.
  • Em Portugal
  • Lista de países
  • Para 7 dias
  • Temperatura da água
  • Mapas de satélite
  • Mapa do tempo
  • Widgets de tempo
  • user-avatar
    Iniciar Sessão

    Previsão horária em Szczytnica

    Hoje, 20 Março, Quarta-feira

    Tempo Temperatura Precipitação Vento Pressão Humidade
    00:00 +1°C° 0 mm 2 m/s 756 mmHg 83%
    01:00 +1°C° 0 mm 2 m/s 756 mmHg 86%
    02:00 +1°C° 0 mm 2 m/s 756 mmHg 87%
    03:00 +1°C° 0 mm 2 m/s 756 mmHg 89%
    04:00 -1°C° 0 mm 2 m/s 756 mmHg 90%
    05:00 +1°C° 0 mm 2 m/s 757 mmHg 89%
    06:00 +1°C° 0 mm 2 m/s 757 mmHg 87%
    07:00 +1°C° 0 mm 2 m/s 757 mmHg 84%
    08:00 +2°C° 0 mm 3 m/s 757 mmHg 75%
    09:00 +4°C° 0 mm 3 m/s 758 mmHg 66%
    10:00 +7°C° 0 mm 3 m/s 758 mmHg 57%
    11:00 +8°C° 0 mm 3 m/s 758 mmHg 53%
    12:00 +9°C° 0 mm 3 m/s 758 mmHg 49%
    13:00 +10°C° 0 mm 3 m/s 758 mmHg 44%
    14:00 +10°C° 0 mm 3 m/s 758 mmHg 44%
    15:00 +10°C° 0 mm 3 m/s 757 mmHg 44%
    16:00 +10°C° 0 mm 3 m/s 757 mmHg 44%
    17:00 +9°C° 0 mm 3 m/s 757 mmHg 50%
    18:00 +7°C° 0 mm 2 m/s 757 mmHg 55%
    19:00 +6°C° 0 mm 2 m/s 757 mmHg 61%
    20:00 +5°C° 0 mm 2 m/s 758 mmHg 62%
    21:00 +5°C° 0 mm 2 m/s 758 mmHg 64%
    22:00 +4°C° 0 mm 3 m/s 758 mmHg 65%
    23:00 +4°C° 0 mm 3 m/s 758 mmHg 65%

    Amanhã, 21 Março, Quinta-feira

    Tempo Temperatura Precipitação Vento Pressão Humidade
    00:00 +4°C° 0 mm 3 m/s 758 mmHg 64%
    01:00 +3°C° 0 mm 3 m/s 759 mmHg 64%
    02:00 +3°C° 0 mm 3 m/s 758 mmHg 65%
    03:00 +3°C° 0 mm 3 m/s 758 mmHg 67%
    04:00 +3°C° 0 mm 3 m/s 758 mmHg 69%
    05:00 +3°C° 0 mm 3 m/s 758 mmHg 70%
    06:00 +3°C° 0 mm 3 m/s 758 mmHg 71%
    07:00 +4°C° 0 mm 3 m/s 759 mmHg 73%
    08:00 +5°C° 0 mm 3 m/s 759 mmHg 71%
    09:00 +8°C° 0 mm 3 m/s 759 mmHg 70%
    10:00 +10°C° 0 mm 4 m/s 759 mmHg 68%
    11:00 +11°C° 0 mm 3 m/s 759 mmHg 65%
    12:00 +12°C° 0 mm 3 m/s 759 mmHg 62%
    13:00 +14°C° 0 mm 3 m/s 759 mmHg 59%
    14:00 +14°C° 0 mm 3 m/s 758 mmHg 59%
    15:00 +14°C° 0 mm 3 m/s 758 mmHg 59%
    16:00 +14°C° 0 mm 3 m/s 757 mmHg 59%
    17:00 +14°C° 0 mm 2 m/s 757 mmHg 66%
    18:00 +12°C° 0 mm 2 m/s 757 mmHg 73%
    19:00 +11°C° 0 mm 1 m/s 757 mmHg 81%
    20:00 +10°C° 0 mm 1 m/s 757 mmHg 83%
    21:00 +10°C° 0 mm 1 m/s 757 mmHg 86%
    22:00 +9°C° 0 mm 1 m/s 757 mmHg 88%
    23:00 +9°C° 0 mm 1 m/s 758 mmHg 89%

    Depois de amanhã, 22 Março, Sexta-feira

    Tempo Temperatura Precipitação Vento Pressão Humidade
    00:00 +9°C° 0 mm 1 m/s 758 mmHg 89%
    01:00 +7°C° 0 mm 2 m/s 758 mmHg 90%
    02:00 +7°C° 0 mm 2 m/s 757 mmHg 90%
    03:00 +7°C° 0 mm 2 m/s 757 mmHg 90%
    04:00 +7°C° 0 mm 2 m/s 757 mmHg 90%
    05:00 +7°C° 0 mm 2 m/s 757 mmHg 89%
    06:00 +7°C° 0 mm 2 m/s 757 mmHg 88%
    07:00 +7°C° 0 mm 2 m/s 757 mmHg 87%
    08:00 +11°C° 0 mm 1 m/s 757 mmHg 79%
    09:00 +13°C° 0 mm 1 m/s 758 mmHg 70%
    10:00 +15°C° 0 mm 1 m/s 758 mmHg 62%
    11:00 +16°C° 0 mm 1 m/s 757 mmHg 58%
    12:00 +16°C° 0 mm 0 m/s 757 mmHg 54%
    13:00 +17°C° 0 mm 0 m/s 757 mmHg 50%
    14:00 +18°C° 0 mm 0 m/s 756 mmHg 49%
    15:00 +18°C° 0 mm 0 m/s 756 mmHg 48%
    16:00 +20°C° 0 mm 1 m/s 755 mmHg 47%
    17:00 +18°C° 0 mm 1 m/s 755 mmHg 53%
    18:00 +15°C° 0 mm 1 m/s 755 mmHg 59%
    19:00 +14°C° 0 mm 1 m/s 755 mmHg 65%
    20:00 +13°C° 0 mm 1 m/s 755 mmHg 68%
    21:00 +13°C° 0 mm 1 m/s 755 mmHg 70%
    22:00 +12°C° 0 mm 2 m/s 755 mmHg 73%
    23:00 +12°C° 0 mm 2 m/s 755 mmHg 73%

    23 Março, Sábado

    Tempo Temperatura Precipitação Vento Pressão Humidade
    00:00 +10°C° 0 mm 2 m/s 754 mmHg 73%
    01:00 +10°C° 0 mm 2 m/s 754 mmHg 72%
    02:00 +10°C° 0 mm 2 m/s 754 mmHg 73%
    03:00 +9°C° 0 mm 2 m/s 754 mmHg 73%
    04:00 +9°C° 0 mm 3 m/s 754 mmHg 73%
    05:00 +9°C° 0 mm 3 m/s 754 mmHg 72%
    06:00 +10°C° 0 mm 3 m/s 754 mmHg 71%
    07:00 +10°C° 0 mm 3 m/s 754 mmHg 70%
    08:00 +11°C° 0 mm 3 m/s 754 mmHg 65%
    09:00 +13°C° 0 mm 3 m/s 754 mmHg 61%
    10:00 +15°C° 0 mm 4 m/s 754 mmHg 56%
    11:00 +17°C° 0 mm 4 m/s 754 mmHg 54%
    12:00 +17°C° 0 mm 4 m/s 754 mmHg 52%
    13:00 +18°C° 0 mm 4 m/s 754 mmHg 49%
    14:00 +18°C° 0 mm 4 m/s 754 mmHg 51%
    15:00 +18°C° 0 mm 4 m/s 754 mmHg 52%
    16:00 +17°C° 0 mm 4 m/s 754 mmHg 54%
    17:00 +16°C° 0 mm 3 m/s 754 mmHg 62%
    18:00 +13°C° 0 mm 3 m/s 754 mmHg 71%
    19:00 +11°C° 0 mm 3 m/s 755 mmHg 79%
    20:00 +11°C° 0 mm 3 m/s 755 mmHg 78%
    21:00 +10°C° 0 mm 3 m/s 755 mmHg 77%
    22:00 +10°C° 0 mm 3 m/s 756 mmHg 76%
    23:00 +9°C° 0 mm 3 m/s 756 mmHg 69%

    24 Março, Domingo

    Tempo Temperatura Precipitação Vento Pressão Humidade
    00:00 +8°C° 0 mm 3 m/s 756 mmHg 61%
    01:00 +7°C° 0 mm 3 m/s 756 mmHg 54%
    02:00 +7°C° 0 mm 3 m/s 755 mmHg 54%
    03:00 +5°C° 0 mm 3 m/s 755 mmHg 54%
    04:00 +5°C° 0 mm 2 m/s 755 mmHg 53%
    05:00 +5°C° 0 mm 2 m/s 755 mmHg 56%
    06:00 +5°C° 0 mm 2 m/s 755 mmHg 59%
    07:00 +4°C° 0 mm 2 m/s 755 mmHg 62%
    08:00 +6°C° 0 mm 2 m/s 755 mmHg 57%
    09:00 +7°C° 0 mm 3 m/s 755 mmHg 53%
    10:00 +8°C° 0 mm 3 m/s 755 mmHg 48%
    11:00 +10°C° 0 mm 2 m/s 754 mmHg 46%
    12:00 +12°C° 0 mm 2 m/s 754 mmHg 44%
    13:00 +13°C° 0 mm 2 m/s 753 mmHg 42%
    14:00 +13°C° 0 mm 2 m/s 752 mmHg 43%
    15:00 +13°C° 0 mm 2 m/s 752 mmHg 43%
    16:00 +13°C° 0 mm 2 m/s 751 mmHg 43%
    17:00 +11°C° 0 mm 1 m/s 751 mmHg 47%
    18:00 +10°C° 0 mm 1 m/s 751 mmHg 52%
    19:00 +9°C° 0 mm 1 m/s 750 mmHg 56%
    20:00 +8°C° 0 mm 1 m/s 750 mmHg 58%
    21:00 +8°C° 0 mm 1 m/s 750 mmHg 61%
    22:00 +7°C° 0 mm 1 m/s 750 mmHg 63%
    23:00 +7°C° 0 mm 1 m/s 749 mmHg 63%

    25 Março, Segunda-feira

    Tempo Temperatura Precipitação Vento Pressão Humidade
    00:00 +5°C° 0 mm 2 m/s 749 mmHg 63%
    01:00 +5°C° 0 mm 2 m/s 748 mmHg 63%
    02:00 +4°C° 0 mm 3 m/s 748 mmHg 64%
    03:00 +5°C° 0 mm 4 m/s 748 mmHg 64%
    04:00 +5°C° 0 mm 4 m/s 748 mmHg 65%
    05:00 +5°C° 0 mm 5 m/s 748 mmHg 66%
    06:00 +3°C° 0 mm 5 m/s 747 mmHg 67%
    07:00 +3°C° 0 mm 5 m/s 747 mmHg 69%
    08:00 +4°C° 0 mm 6 m/s 747 mmHg 66%
    09:00 +5°C° 0 mm 7 m/s 747 mmHg 62%
    10:00 +6°C° 0 mm 8 m/s 746 mmHg 59%
    11:00 +6°C° 0.1 mm 8 m/s 746 mmHg 62%
    12:00 +5°C° 0.1 mm 8 m/s 745 mmHg 64%
    13:00 +5°C° 0.1 mm 9 m/s 745 mmHg 66%
    14:00 +5°C° 0.4 mm 9 m/s 745 mmHg 64%
    15:00 +3°C° 0.4 mm 9 m/s 744 mmHg 62%
    16:00 +3°C° 0.4 mm 9 m/s 744 mmHg 60%
    17:00 +2°C° 0.1 mm 8 m/s 744 mmHg 62%
    18:00 +2°C° 0.1 mm 8 m/s 744 mmHg 64%
    19:00 +2°C° 0.1 mm 7 m/s 745 mmHg 65%
    20:00 0°C° 0 mm 7 m/s 744 mmHg 67%
    21:00 0°C° 0 mm 7 m/s 744 mmHg 68%
    22:00 -1°C° 0 mm 7 m/s 744 mmHg 69%
    23:00 -1°C° 0.1 mm 8 m/s 744 mmHg 69%
    Mostrar mais